Location: Recife
(8.0585°S, 34.8848°W)
Time: 10:11:20
(UTC-03:00)

Courier 1B Rocket - Pass Details

Date: 15 April 2026
Orbit: 920 x 1201 km, 28.2° (Epoch: 13 May)

Event Time Altitude Azimuth Distance (km) Brightness Sun altitude
Rises 14:16:03 0° 242° (WSW) 4,079 8.7 42.5°
Reaches altitude 10° 14:18:53 10° 242° (WSW) 3,127 8.2 41.9°
Maximum altitude 14:26:45 86° 330° (NNW) 1,200 6.3 40.0°
Drops below altitude 10° 14:34:29 10° 59° (ENE) 3,069 7.4 38.2°
Sets 14:37:15 0° 59° (ENE) 4,000 7.9 37.6°
